{"data":{"norad_id":51787,"intl_designator":"2022-017V","name":"STARLINK-3619","alt_names":[],"object_type":"PAYLOAD","status":"ACTIVE","operator":null,"country":"US","launch_date":"2022-02-25","launch_site_code":"AFWTR","launch_vehicle":null,"mission":null,"orbit_class":"UNKNOWN","rcs_meters":null,"size_class":null,"mass_kg":null,"dimensions":null,"purposes":["comms"],"wikipedia_slug":null,"has_3d_model":false,"image_url":null,"decayed_at":null,"tle_current":{"epoch":"2026-05-24T21:55:49.136160Z","epoch_age_seconds":78681,"freshness":"FRESH","line1":"1 51787U 22017V   26144.91376315  .00000821  00000+0  69686-4 0  9991","line2":"2 51787  53.2131   6.9360 0001462  56.6074 303.5058 15.08844499233789","mean_motion":15.08844499,"eccentricity":0.0001462,"inclination_deg":53.2131,"raan_deg":6.936,"arg_perigee_deg":56.6074,"mean_anomaly_deg":303.5058,"bstar":6.9686e-5,"rev_number":23378,"period_min":95.437270106653,"perigee_km":538.71824525274,"apogee_km":540.74102945751,"semimajor_km":6917.8666373551,"source":"CELESTRAK","updated_at":"2026-05-25T13:38:16.953835Z"}}}